Location: *
(49.0044°N, 9.5056°E)
Time: 15:20:24
(UTC+00:00)

GEOS 3 Rocket - Pass Details

Date: 22 September 2019
Orbit: 790 x 830 km, 115.0° (Epoch: 20 October)

Event Time Altitude Azimuth Distance (km) Brightness Sun altitude
Exits shadow 17:48:57 - 117° (ESE) 2,837 5.8 -5.4°
Reaches altitude 10° 17:50:10 10° 114° (ESE) 2,353 5.4 -5.6°
Maximum altitude 17:55:05 51° 40° (NE) 998 3.9 -6.4°
Drops below altitude 10° 18:00:02 10° 326° (NW) 2,373 6.7 -7.2°
Sets 18:02:22 0° 321° (NW) 3,311 7.6 -7.6°
